Home   Weather   Durham   Past weeks

Flag for United Kingdom Past Weather in Durham, England, United Kingdom — Yesterday and Last 2 Weeks

Now
63 °F

Passing clouds.


Feels Like: 63 °F
Forecast: 56 / 68 °F
Wind: 10 mph from South

Location: Newcastle

Current Time: Aug 16, 2017 at 11:02:49 pm

Latest Report: Aug 16, 2017 at 10:20 pm


Visibility: N/A

Pressure: 29.77 "Hg

Humidity: 73%

Dew Point: 54 °F

Location of DurhamLocation

Past Weather in Durham — Graph

°F

Durham Temperature Yesterday

Maximum temperature yesterday: 66 °F (at 2:20 pm)
Minimum temperature yesterday: 52 °F (at 11:20 pm)
Average temperature yesterday: 60 °F

High & Low Weather Summary for the Past Weeks

 TemperatureHumidityPressure
High68 °F (Aug 3, 3:20 pm)100% (Aug 2, 11:50 pm)30.24 "Hg (Aug 2, 11:50 pm)
Low43 °F (Aug 6, 3:50 am)43% (Aug 13, 3:50 pm)29.39 "Hg (Aug 3, 8:20 am)
Average58 °F80%29.90 "Hg
* Reported Aug 1 10:20 pm — Aug 16 10:20 pm, Durham. Weather by CustomWeather, © 2017

Note: Actual official high and low records may vary slightly from our data, if they occured in-between our weather recording intervals... More about our weather records

Advertising

Durham Weather History for the Previous 24 Hours

Scroll right to see more
 ConditionsComfort  
Time TempWeatherWind HumidityBarometerVisibility
10:20 pm
Wed, Aug 16
63 °FPassing clouds.10 mph73%29.77 "HgN/A
9:50 pm64 °FPassing clouds.9 mph68%29.80 "HgN/A
9:20 pm64 °FPassing clouds.8 mph64%29.80 "HgN/A
8:50 pm64 °FPassing clouds.6 mph64%29.83 "HgN/A
7:50 pm64 °FPassing clouds.7 mph60%29.83 "HgN/A
7:20 pm64 °FPassing clouds.10 mph64%29.83 "HgN/A
6:50 pm66 °FPassing clouds.10 mph56%29.83 "HgN/A
6:20 pm64 °FPassing clouds.10 mph60%29.86 "HgN/A
5:50 pm66 °FSprinkles. Passing clouds.12 mph56%29.86 "HgN/A
5:20 pm66 °FPassing clouds.9 mph56%29.86 "HgN/A
4:50 pm66 °FPassing clouds.13 mph52%29.89 "HgN/A
4:20 pm66 °FPassing clouds.10 mph56%29.89 "HgN/A
3:50 pm68 °FScattered clouds.12 mph53%29.89 "HgN/A
3:20 pm66 °FScattered clouds.13 mph56%29.92 "HgN/A
2:50 pm66 °FScattered clouds.12 mph56%29.92 "HgN/A
2:20 pm66 °FScattered clouds.10 mph56%29.92 "HgN/A
1:50 pm66 °FPassing clouds.9 mph56%29.95 "HgN/A
1:20 pm66 °FPassing clouds.10 mph56%29.95 "HgN/A
12:50 pm66 °FPassing clouds.10 mph56%29.95 "HgN/A
12:20 pm66 °FPassing clouds.13 mph56%29.95 "HgN/A
11:50 am64 °FPassing clouds.10 mph64%29.95 "HgN/A
11:20 am64 °FPassing clouds.12 mph60%29.98 "HgN/A
10:50 am63 °FPassing clouds.13 mph64%29.98 "HgN/A
10:20 am63 °FPassing clouds.9 mph64%30.01 "HgN/A
9:50 am61 °FPassing clouds.9 mph68%30.01 "HgN/A
9:20 am61 °FPassing clouds.6 mph72%30.01 "HgN/A
8:50 am59 °FPassing clouds.7 mph77%30.01 "HgN/A
8:20 am59 °FPassing clouds.5 mph82%30.01 "HgN/A
7:50 am57 °FSunny.2 mph88%30.01 "Hg10 mi
7:20 am54 °FSunny.3 mph94%30.01 "Hg10 mi
6:50 am52 °FPassing clouds.5 mph94%30.01 "HgN/A
6:20 am52 °FPassing clouds.5 mph94%30.01 "HgN/A
5:50 am48 °FSunny.1 mph94%30.01 "Hg10 mi
4:50 am50 °FClear.2 mph94%30.01 "Hg10 mi
3:50 am54 °FClear.1 mph88%30.01 "Hg10 mi
2:50 am54 °FClear.7 mph88%30.01 "Hg10 mi
1:50 am52 °FPassing clouds.5 mph88%30.01 "HgN/A
1:20 am50 °FPassing clouds.5 mph94%30.01 "HgN/A
12:50 am52 °FClear.3 mph88%30.01 "Hg10 mi
11:50 pm
Tue, Aug 15
54 °FClear.5 mph88%30.01 "Hg10 mi
11:20 pm52 °FClear.5 mph88%30.01 "Hg10 mi
Weather by CustomWeather, © 2017

See weather overviewHow to use our weather pages